Flag for U.S.A. Weather past 2 weeks in Fullerton, California, U.S.A.

Now
65 °F

Clear.


Feels Like: 65 °F
Forecast: 60 / 77 °F
Wind: No wind

Location: Fullerton Municipal Airport

Current Time: Oct 25, 2014 at 12:47:21 AM

Latest Report: Oct 24, 2014 at 11:53 PM


Visibility: 10 mi

Pressure: 30.00 "Hg

Humidity: 70%

Dew point: 55 °F

Location of FullertonLocation

Historic Weather in Fullerton — Graph

°F

Fullerton temperature yesterday

Maximum temperature yesterday: 88 °F (at 2:53 PM)
Minimum temperature yesterday: 57 °F (at 6:53 AM)
Average temperature yesterday: 72 °F

Past Weeks' High & Low Weather Summary

 TemperatureHumidityPressure
High88 °F (Oct 24, 2:53 PM)87% (Oct 13, 3:53 AM)30.01 "Hg (Oct 13, 3:53 AM)
Low57 °F (Oct 24, 6:53 AM)13% (Oct 24, 2:53 PM)29.81 "Hg (Oct 19, 4:53 PM)
Average71 °F66%29.92 "Hg
* Reported Oct 9 11:53 PM — Oct 24 11:53 PM, Fullerton, Weather by CustomWeather, © 2014

Note: Actual official high and low records may vary slightly from our data, if they occured in-between our weather recording intervals... More about our weather records

Advertising

Fullerton weather history for previous 24 hours

 ConditionsComfort  
Time TempWeatherWind HumidityBarometerVisibility
11:53 PM
Oct 24
65 °FClear.No wind70%30.00 "Hg10 mi
10:53 PM67 °FClear.No wind66%29.99 "Hg10 mi
9:53 PM70 °FClear.No wind64%29.97 "Hg10 mi
8:53 PM71 °FClear.No wind59%29.95 "Hg10 mi
7:53 PM74 °FClear.3 mph57%29.93 "Hg10 mi
6:53 PM77 °FPleasantly warm.No wind37%29.92 "Hg10 mi
5:53 PM81 °FSunny.5 mph26%29.91 "Hg10 mi
4:53 PM84 °FSunny.6 mph17%29.90 "Hg10 mi
3:53 PM86 °FSunny.6 mph20%29.91 "Hg10 mi
2:53 PM88 °FSunny.7 mph13%29.91 "Hg10 mi
1:53 PM87 °FSunny.7 mph25%29.92 "Hg10 mi
12:53 PM87 °FSunny.N/A24%29.94 "Hg10 mi
11:53 AM84 °FSunny.No wind26%29.96 "Hg10 mi
10:53 AM81 °FSunny.5 mph27%29.97 "Hg10 mi
9:53 AM76 °FSunny.6 mph35%29.98 "Hg10 mi
8:53 AM70 °FSunny.6 mph47%29.98 "Hg10 mi
7:53 AM61 °FClear.No wind75%29.97 "Hg10 mi
6:53 AM57 °FClear.No wind83%29.96 "Hg10 mi
5:53 AM58 °FClear.No wind84%29.94 "Hg10 mi
4:53 AM60 °FCool.No wind72%29.94 "Hg10 mi
3:53 AM61 °FClear.3 mph70%29.94 "Hg10 mi
2:53 AM61 °FClear.No wind78%29.95 "Hg10 mi
1:53 AM62 °FCool.No wind78%29.95 "Hg10 mi
12:53 AM64 °FClear.No wind73%29.96 "Hg10 mi
Weather by CustomWeather, © 2014

See weather overviewHow to use our weather pages